Location: Marsån
(66.4167°N, 22.2833°E)
Time: 10:43:57
(UTC+00:00)

MOS 1 Rocket - Pass Details

Date: 24 February 2024
Orbit: 611 x 822 km, 97.5° (Epoch: 16 April)

Event Time Altitude Azimuth Distance (km) Brightness Sun altitude
Exits shadow 19:45:42 77° 102° (ESE) 815 3.4 -25.5°
Maximum altitude 19:45:56 79° 67° (ENE) 807 3.4 -25.6°
Drops below altitude 10° 19:51:02 10° 342° (NNW) 2,295 6.7 -25.9°
Sets 19:53:17 0° 341° (NNW) 3,191 7.6 -26.1°
